| time (UTC) | temp F | wind direction | speed MPH | gust MPH | rain 1hr in | rain 24hr in | rain mn in | humidity % | barometer mb |
| 20260903033505 | 61 | 249 | 24.0 | 32.0 | 0.00 | 0.03 | 0.00 | 1007.0 | |
| 20260903030505 | 61 | 249 | 24.0 | 32.0 | 0.00 | 0.03 | 0.00 | 1007.0 | |
| 20260903023506 | 62 | 247 | 22.0 | 29.0 | 0.00 | 0.03 | 0.00 | 1007.0 | |
| 20260903020505 | 62 | 247 | 22.0 | 29.0 | 0.00 | 0.03 | 0.00 | 1007.0 | |
| 20260903013506 | 62 | 240 | 16.0 | 21.0 | 0.00 | 0.03 | 0.00 | 1007.0 | |
| 20260903010506 | 62 | 240 | 16.0 | 21.0 | 0.00 | 0.03 | 0.00 | 1007.0 | |
| 20260903003506 | 61 | 240 | 13.0 | 16.0 | 0.00 | 0.03 | 0.00 | 1007.0 | |
| 20260903000506 | 62 | 241 | 16.0 | 20.0 | 0.00 | 0.00 | 0.00 | 1007.0 | |
| 20260902233506 | 61 | 232 | 11.0 | 13.0 | 0.00 | 0.03 | 0.00 | 1008.0 | |
| 20260902230506 | 61 | 232 | 11.0 | 13.0 | 0.00 | 0.00 | 0.00 | 1008.0 | |
| 20260902223506 | 61 | 200 | 8.0 | 9.0 | 0.00 | 0.03 | 0.00 | 1008.0 | |
| 20260902220506 | 61 | 200 | 8.0 | 9.0 | 0.00 | 0.03 | 0.00 | 1008.0 | |
| 20260902213505 | 61 | 156 | 6.0 | 8.0 | 0.00 | 0.03 | 0.00 | 1008.0 | |
| 20260902210506 | 61 | 156 | 6.0 | 8.0 | 0.00 | 0.03 | 0.00 | 1008.0 | |
| 20260902203505 | 60 | 123 | 9.0 | 11.0 | 0.00 | 0.03 | 0.00 | 1009.0 | |
| 20260902200505 | 60 | 123 | 9.0 | 11.0 | 0.00 | 0.03 | 0.00 | 1009.0 | |
| 20260902193505 | 61 | 112 | 9.0 | 11.0 | 0.00 | 0.03 | 0.00 | 1010.0 | |
| 20260902190505 | 61 | 112 | 9.0 | 11.0 | 0.00 | 0.03 | 0.00 | 1010.0 | |
| 20260902183505 | 61 | 119 | 8.0 | 10.0 | 0.00 | 0.03 | 0.00 | 1011.0 | |
| 20260902180505 | 60 | 108 | 9.0 | 12.0 | 0.00 | 0.03 | 0.00 | 1011.0 | |
| 20260902173506 | 61 | 131 | 7.0 | 8.0 | 0.00 | 0.03 | 0.00 | 1011.0 | |
| 20260902170506 | 61 | 131 | 7.0 | 8.0 | 0.00 | 0.03 | 0.00 | 1011.0 | |
| 20260902163506 | 61 | 155 | 6.0 | 8.0 | 0.00 | 0.03 | 0.00 | 1012.0 | |
| 20260902160506 | 61 | 155 | 6.0 | 8.0 | 0.00 | 0.03 | 0.00 | 1012.0 | |
| 20260902153506 | 61 | 155 | 6.0 | 8.0 | 0.00 | 0.03 | 0.00 | 1012.0 | |
| 20260902150506 | 61 | 132 | 6.0 | 7.0 | 0.00 | 0.03 | 0.00 | 1013.0 | |
| 20260902143506 | 61 | 132 | 6.0 | 7.0 | 0.00 | 0.03 | 0.00 | 1013.0 | |
| 20260902140506 | 60 | 110 | 8.0 | 10.0 | 0.00 | 0.03 | 0.00 | 1013.0 | |
| 20260902133505 | 60 | 110 | 8.0 | 10.0 | 0.00 | 0.03 | 0.00 | 1013.0 | |
| 20260902130505 | 59 | 101 | 11.0 | 14.0 | 0.00 | 0.03 | 0.00 | 1014.0 | |
| 20260902123505 | 59 | 101 | 11.0 | 14.0 | 0.00 | 0.03 | 0.00 | 1014.0 | |
| 20260902120505 | 57 | 85 | 12.0 | 17.0 | 0.00 | 0.03 | 0.00 | 1015.0 | |
| 20260902113505 | 57 | 84 | 12.0 | 17.0 | 0.00 | 0.03 | 0.00 | 1015.0 | |
| 20260902110505 | 57 | 84 | 10.0 | 14.0 | 0.00 | 0.03 | 0.00 | 1015.0 | |
| 20260902103505 | 57 | 84 | 10.0 | 14.0 | 0.00 | 0.03 | 0.00 | 1015.0 | |
| 20260902100505 | 57 | 88 | 7.0 | 10.0 | 0.00 | 0.03 | 0.00 | 1015.0 | |
| 20260902093506 | 57 | 88 | 7.0 | 10.0 | 0.00 | 0.03 | 0.00 | 1015.0 | |
| 20260902090506 | 57 | 89 | 4.0 | 6.0 | 0.00 | 0.03 | 0.00 | 1015.0 | |
| 20260902083506 | 57 | 89 | 4.0 | 6.0 | 0.00 | 0.00 | 0.00 | 1016.0 | |
| 20260902080506 | 56 | 113 | 2.0 | 4.0 | 0.00 | 0.00 | 0.00 | 1015.0 | |
| 20260902073506 | 56 | 113 | 2.0 | 4.0 | 0.00 | 0.00 | 0.00 | 1015.0 | |
| 20260902070506 | 56 | 212 | 1.0 | 3.0 | 0.00 | 0.00 | 0.00 | 1015.0 | |
| 20260902063506 | 56 | 212 | 1.0 | 3.0 | 0.00 | 0.00 | 0.00 | 1016.0 | |
| 20260902060506 | 56 | 254 | 3.0 | 5.0 | 0.00 | 0.00 | 0.00 | 1015.0 | |
| 20260902053505 | 56 | 282 | 3.0 | 6.0 | 0.00 | 0.00 | 0.00 | 1015.0 | |
| 20260902050506 | 56 | 268 | 6.0 | 9.0 | 0.00 | 0.00 | 0.00 | 1015.0 | |
| 20260902043505 | 56 | 268 | 6.0 | 9.0 | 0.00 | 0.00 | 0.00 | 1015.0 | |
| 20260902040505 | 57 | 267 | 7.0 | 11.0 | 0.00 | 0.00 | 0.00 | 1015.0 |